Location: Newark
(7.0858°N, 171.3717°E)
Time: 04:00:51
(UTC+00:00)

Hubble Space Telescope - Pass Details

Date: 28 September 2021
Orbit: 535 x 538 km, 28.5° (Epoch: 15 October)

Event Time Altitude Azimuth Distance (km) Brightness Sun altitude
Rises 07:50:58 0° 268° (W) 2,665 5.9 -21.6°
Reaches altitude 10° 07:54:12 10° 242° (WSW) 1,776 4.2 -22.4°
Maximum altitude 07:56:19 14° 210° (SSW) 1,553 3.4 -22.9°
Enters shadow 07:58:20 10° 180° (S) 1,758 3.4 -23.4°
